GEESAT 4-02

导读 | 豆包AI

GEESAT 4-02是中国计划于2025年8月8日发射的卫星,作为GEESAT系列卫星的组成部分,该卫星承载着中国航天探索的相关任务目标,其发射是中国航天布局中既定的重要环节,将在预定发射窗口完成发射任务,后续将按设计入轨,服务于其预设的航天应用领域,助力中国航天事业相关领域的发展。

基本信息
目录编号:
65120
目录名称:
GEESAT 4-02
国际标识:
2025-170B
轨道中心:
EARTH
卫星名称:
GEESAT 4-02
卫星全名:
GEESAT 4-02
卫星状态:
在轨 (已飞行218 天)
发射日期:
2025-08-08 UTC
国别 :
中国 (CN)
星等 :
--
轨道信息
数据来源 国际轨道数据
星历时间: 2026-03-13T22:14:26+0800
12小时前
查看轨道信息
半长轴: 6996.248km
偏心率: 0.0010462
轨道倾角: 49.984°
近地点辐角 74.417°
升交点赤经 257.543°
平近点角 285.792°
近地点: 610.791km
远地点: 625.431km
周期: 97.064分钟
每日圈数: 14.835598
详细信息
使用方式:
暂无
2D轨道图
3D轨道图
轨道高度分析图
轨道倾角分析图
轨道综合分析图
查看轨道综合分析图